Location: Maiden
(35.5760°N, 81.2120°W)
Time: 13:41:13
(UTC-04:00)

Cosmos 1315 Rocket - Pass Details

Date: 14 June 2018
Orbit: 531 x 569 km, 81.2° (Epoch: 18 June)

Event Time Altitude Azimuth Distance (km) Brightness Sun altitude
Exits shadow 22:21:37 27° 96° (E) 1,072 3.9 -16.8°
Maximum altitude 22:21:46 27° 92° (E) 1,071 3.9 -16.9°
Drops below altitude 10° 22:25:11 10° 34° (NNE) 1,834 5.6 -17.3°
Sets 22:27:36 0° 22° (NNE) 2,740 6.7 -17.7°
